GPS BIIRM-6 (PRN 07)

Last updated on Thu Dec 26 2024 00:03:09 GMT+0000 (Coordinated Universal Time)

1 32711U 08012A 24360.17152204 .00000110 00000+0 00000+0 0 9992 2 32711 54.4561 171.4359 0190772 240.7195 117.3780 2.00552678122945
UTC large
Height (km)
Speed (km/s)
/
Latitude / Longitude
Inclination (degrees)
Orbital Period (minutes)
Azimuth
Elevation
Range (km)
Doppler Factor

Next 0 passes for location: London (51.5072 / 0.1276)

Sorry there are no passes over London.